GRACE-FO 2 (43477 NORAD) Tracking and Keplerian Element Data

This shows tracking and keplerian element data for the satellite.

Feedback or suggestion? Click here.




ElementValue
Catalog43477
NameGRACE-FO 2
Epoch Orbit42229
Epoch Day354.17216342
Epoch Year2025
RAAN222.6011
Inclination88.9855
Eccentricity0.001439
Argument of Perigee88.8811
Mean Anonmoly271.4092
Mean Motion15.36575314
Decay Rate3.074E-05
L11 43477U 18047B 25354.17216342 .00003074 00000+0 84971-4 0 9996
L22 43477 88.9855 222.6011 0014390 88.8811 271.4092 15.36575314422299



Live tracking and technical data element details for GRACE-FO 2 (NORAD 43477). GRACE-FO 2 can be tracked NOW for your location showing map with azimuth and elevation plus other details from your city location.







IsCatalogInMostPopularTable: catalog: 43477, numindb: 404
Update: records affected: 1



GetName: 43477 GRACE-FO 2

Hit Count: updated at: Thu, 16 Apr 2026 04:46:49 GMT